Location: ?????
(55.6500°N, 37.2500°E)
Time: 01:30:51
(UTC+00:00)

SL-16 R/B - Pass Details

Date: 19 May 2025
Orbit: 841 x 845 km, 71.0° (Epoch: 18 April)

Event Time Altitude Azimuth Distance (km) Brightness Sun altitude
Rises 19:15:48 0° 324° (NW) 3,410 7.7 -9.4°
Reaches altitude 10° 19:18:22 10° 330° (NNW) 2,472 6.3 -9.6°
Maximum altitude 19:23:50 48° 45° (NE) 1,102 3.0 -10.0°
Drops below altitude 10° 19:29:18 10° 119° (ESE) 2,463 4.1 -10.3°
Enters shadow 19:29:40 - 120° (ESE) 2,594 4.2 -10.4°
